Weather History for KAWG - October, 2014

Change the Weather History Date:

Monday, October 20, 2014

  Actual Average Record
Temperature  
Mean Temperature 58 °F -  
Max Temperature 69 °F 60 °F 82 °F (2000)
Min Temperature 46 °F 40 °F 23 °F (2002)
Degree Days  
Heating Degree Days 8    
Growing Degree Days 8 (Base 50)    
Moisture  
Dew Point 45 °F    
Average Humidity 68    
Maximum Humidity 100    
Minimum Humidity 38    
Precipitation  
Precipitation 0.00 in - - ()
Sea Level Pressure  
Sea Level Pressure 29.96 in    
Wind  
Wind Speed 10 mph (NW)    
Max Wind Speed 18 mph    
Max Gust Speed 29 mph    
Visibility 10 miles    
Events      
Averages and records for this station are not official NWS values.
T = Trace of Precipitation, MM = Missing Value Source: NWS Daily Summary

Daily Weather History Graph

Daily Weather History Graph

Search for Another Location

Airport or City:

Trip Planner

Search our weather history database for the weather conditions in past years. The results will help you decide how hot, cold, wet, or windy it might be!

Date:

Astronomy

Oct. 20, 2014 Rise Set
Actual Time 7:24 AM CDT 6:18 PM CDT
Civil Twilight 6:56 AM CDT 6:46 PM CDT
Nautical Twilight 6:23 AM CDT 7:18 PM CDT
Astronomical Twilight 5:51 AM CDT 7:50 PM CDT
Moon 4:10 AM CDT (10/20) 4:42 PM CDT (10/20)
Length of Visible Light 11h 50m
Length of Day
10h 54m
Waning Crescent, 10% of the Moon is Illuminated
Oct 20
Waning Crescent
Oct 23
New
Oct 30
First Quarter
Nov 6
Full
Nov 14
Last Quarter

Hourly Weather History & Observations

Time (CDT) Temp. Windchill Dew Point Humidity Pressure Visibility Wind Dir Wind Speed Gust Speed Precip Events Conditions
12:15 AM 50.0 °F - 44.6 °F 82% 29.90 in 10.0 mi SW 6.9 mph - N/A   Clear
12:35 AM 50.0 °F - 46.4 °F 87% 29.89 in 10.0 mi SW 8.1 mph - N/A   Clear
12:55 AM 51.8 °F - 46.4 °F 82% 29.89 in 10.0 mi SW 9.2 mph - N/A   Clear
1:15 AM 51.8 °F - 46.4 °F 82% 29.89 in 10.0 mi SW 8.1 mph - N/A   Clear
1:35 AM 51.8 °F - 46.4 °F 82% 29.89 in 10.0 mi WSW 8.1 mph - N/A   Clear
1:55 AM 50.0 °F - 46.4 °F 87% 29.88 in 10.0 mi WSW 9.2 mph - N/A   Clear
2:15 AM 50.0 °F - 46.4 °F 87% 29.89 in 10.0 mi WSW 8.1 mph - N/A   Clear
2:35 AM 50.0 °F - 46.4 °F 87% 29.88 in 10.0 mi WSW 8.1 mph - N/A   Clear
2:55 AM 50.0 °F - 46.4 °F 87% 29.88 in 10.0 mi West 9.2 mph - N/A   Clear
3:15 AM 50.0 °F - 46.4 °F 87% 29.88 in 10.0 mi West 8.1 mph - N/A   Clear
3:35 AM 50.0 °F - 46.4 °F 87% 29.88 in - West 8.1 mph - N/A   Unknown
3:55 AM 50.0 °F - 48.2 °F 94% 29.89 in 10.0 mi West 11.5 mph 17.3 mph N/A   Clear
4:15 AM 50.0 °F - 46.4 °F 87% 29.89 in 10.0 mi WNW 10.4 mph - N/A   Clear
4:35 AM 48.2 °F - 46.4 °F 93% 29.89 in 10.0 mi WNW 9.2 mph - N/A   Clear
4:55 AM 48.2 °F - 46.4 °F 93% 29.90 in 10.0 mi WNW 9.2 mph - N/A   Clear
5:15 AM 48.2 °F - 46.4 °F 93% 29.91 in 10.0 mi WNW 9.2 mph - N/A   Clear
5:35 AM 48.2 °F - 46.4 °F 93% 29.91 in 10.0 mi WNW 8.1 mph - N/A   Clear
5:55 AM 48.2 °F - 46.4 °F 93% 29.92 in 10.0 mi WNW 8.1 mph - N/A   Clear
6:15 AM 46.4 °F 42.4 °F 46.4 °F 100% 29.92 in 10.0 mi WNW 8.1 mph - N/A   Clear
6:35 AM 48.2 °F - 44.6 °F 87% 29.93 in 10.0 mi NW 9.2 mph - N/A   Clear
6:55 AM 48.2 °F - 44.6 °F 87% 29.94 in 10.0 mi NW 10.4 mph - N/A   Clear
7:15 AM 48.2 °F - 44.6 °F 87% 29.95 in 10.0 mi NNW 10.4 mph - N/A   Clear
7:35 AM 46.4 °F 41.5 °F 44.6 °F 93% 29.95 in 10.0 mi NW 10.4 mph - N/A   Clear
7:55 AM 48.2 °F - 44.6 °F 87% 29.96 in 10.0 mi NW 9.2 mph - N/A   Clear
8:15 AM 48.2 °F - 46.4 °F 93% 29.96 in 10.0 mi NW 6.9 mph - N/A   Clear
8:35 AM 50.0 °F - 46.4 °F 87% 29.97 in 10.0 mi NW 9.2 mph - N/A   Clear
8:55 AM 51.8 °F - 46.4 °F 82% 29.98 in 10.0 mi NW 10.4 mph - N/A   Clear
9:15 AM 51.8 °F - 46.4 °F 82% 29.99 in 10.0 mi NW 10.4 mph - N/A   Clear
9:35 AM 55.4 °F - 46.4 °F 72% 29.99 in 10.0 mi NNW 12.7 mph - N/A   Clear
9:55 AM 57.2 °F - 46.4 °F 67% 30.00 in 10.0 mi NNW 11.5 mph - N/A   Clear
10:15 AM 59.0 °F - 46.4 °F 63% 30.00 in 10.0 mi NNW 11.5 mph - N/A   Clear
10:35 AM 59.0 °F - 46.4 °F 63% 30.00 in 10.0 mi NNW 13.8 mph - N/A   Clear
10:55 AM 60.8 °F - 46.4 °F 59% 30.00 in 10.0 mi NNW 11.5 mph 18.4 mph N/A   Clear
11:15 AM 62.6 °F - 46.4 °F 55% 30.00 in 10.0 mi NNW 17.3 mph - N/A   Clear
11:35 AM 62.6 °F - 46.4 °F 55% 30.00 in 10.0 mi North 15.0 mph - N/A   Clear
11:55 AM 62.6 °F - 44.6 °F 52% 30.00 in 10.0 mi North 13.8 mph 20.7 mph N/A   Clear
12:15 PM 64.4 °F - 46.4 °F 52% 29.99 in 10.0 mi North 15.0 mph - N/A   Clear
12:35 PM 66.2 °F - 44.6 °F 46% 29.99 in 10.0 mi North 15.0 mph 24.2 mph N/A   Clear
12:55 PM 66.2 °F - 44.6 °F 46% 29.98 in 10.0 mi NW 13.8 mph 23.0 mph N/A   Clear
1:15 PM 66.2 °F - 44.6 °F 46% 29.97 in 10.0 mi NNW 16.1 mph 25.3 mph N/A   Clear
1:35 PM 68.0 °F - 44.6 °F 43% 29.97 in 10.0 mi NW 16.1 mph 23.0 mph N/A   Partly Cloudy
1:55 PM 68.0 °F - 44.6 °F 43% 29.97 in 10.0 mi NW 17.3 mph 28.8 mph N/A   Partly Cloudy
2:15 PM 68.0 °F - 42.8 °F 40% 29.96 in 10.0 mi NW 18.4 mph 24.2 mph N/A   Clear
2:35 PM 68.0 °F - 42.8 °F 40% 29.96 in 10.0 mi WNW 16.1 mph 21.9 mph N/A   Partly Cloudy
2:55 PM 69.8 °F - 42.8 °F 38% 29.96 in 10.0 mi NNW 17.3 mph 23.0 mph N/A   Partly Cloudy
3:15 PM 69.8 °F - 42.8 °F 38% 29.96 in 10.0 mi NW 13.8 mph 23.0 mph N/A   Clear
3:35 PM 69.8 °F - 42.8 °F 38% 29.97 in 10.0 mi NW 16.1 mph 23.0 mph N/A   Clear
3:55 PM 69.8 °F - 42.8 °F 38% 29.96 in 10.0 mi WNW 12.7 mph 20.7 mph N/A   Clear
4:15 PM 68.0 °F - 42.8 °F 40% 29.96 in 10.0 mi NW 17.3 mph 23.0 mph N/A   Clear
4:35 PM 69.8 °F - 42.8 °F 38% 29.97 in 10.0 mi NW 18.4 mph - N/A   Clear
4:55 PM 68.0 °F - 42.8 °F 40% 29.97 in 10.0 mi WNW 16.1 mph 23.0 mph N/A   Clear
5:15 PM 68.0 °F - 42.8 °F 40% 29.97 in 10.0 mi NW 15.0 mph - N/A   Clear
5:35 PM 68.0 °F - 42.8 °F 40% 29.97 in 10.0 mi NW 10.4 mph 18.4 mph N/A   Clear
5:55 PM 66.2 °F - 42.8 °F 43% 29.97 in 10.0 mi NW 6.9 mph 13.8 mph N/A   Clear
6:15 PM 62.6 °F - 42.8 °F 48% 29.98 in 10.0 mi WNW 5.8 mph - N/A   Clear
6:35 PM 60.8 °F - 42.8 °F 52% 29.98 in 10.0 mi NW 5.8 mph - N/A   Clear
6:55 PM 59.0 °F - 42.8 °F 55% 29.98 in 10.0 mi NW 6.9 mph - N/A   Clear
7:15 PM 59.0 °F - 42.8 °F 55% 29.99 in 10.0 mi WNW 5.8 mph - N/A   Clear
7:35 PM 57.2 °F - 42.8 °F 59% 30.00 in 10.0 mi WNW 6.9 mph - N/A   Clear
7:55 PM 57.2 °F - 42.8 °F 59% 30.00 in 10.0 mi WNW 6.9 mph - N/A   Clear
8:15 PM 53.6 °F - 42.8 °F 67% 29.99 in 10.0 mi NW 6.9 mph - N/A   Clear
8:35 PM 51.8 °F - 42.8 °F 71% 30.00 in 10.0 mi WNW 5.8 mph - N/A   Clear
8:55 PM 51.8 °F - 42.8 °F 71% 30.00 in 10.0 mi NW 5.8 mph - N/A   Clear
9:15 PM 51.8 °F - 42.8 °F 71% 30.01 in 10.0 mi NNW 6.9 mph - N/A   Clear
9:35 PM 53.6 °F - 42.8 °F 67% 30.01 in 10.0 mi NNW 6.9 mph - N/A   Clear
9:55 PM 51.8 °F - 42.8 °F 71% 30.02 in 10.0 mi NW 6.9 mph - N/A   Clear
10:15 PM 50.0 °F - 42.8 °F 76% 30.02 in 10.0 mi NW 6.9 mph - N/A   Clear
10:35 PM 48.2 °F - 42.8 °F 82% 30.03 in 10.0 mi NW 6.9 mph - N/A   Clear
10:55 PM 48.2 °F - 42.8 °F 82% 30.03 in 10.0 mi NW 6.9 mph - N/A   Clear
11:15 PM 50.0 °F - 42.8 °F 76% 30.03 in 10.0 mi North 8.1 mph - N/A   Clear
11:35 PM 50.0 °F - 42.8 °F 76% 30.03 in 10.0 mi North 6.9 mph - N/A   Clear
11:55 PM 50.0 °F - 42.8 °F 76% 30.03 in 10.0 mi NNW 5.8 mph - N/A   Clear